Weather History for EBBR - October, 2012

Change the Weather History Date:

Monday, October 8, 2012

  Actual Average Record
Temperature  
Mean Temperature 46 °F -  
Max Temperature 55 °F 54 °F 66 °F (2005)
Min Temperature 38 °F 43 °F 37 °F (1996)
Degree Days  
Heating Degree Days 18    
Moisture  
Dew Point 43 °F    
Average Humidity 86    
Maximum Humidity 100    
Minimum Humidity 62    
Precipitation  
Precipitation 0.12 in - - ()
Sea Level Pressure  
Sea Level Pressure 30.05 in    
Wind  
Wind Speed 4 mph ()    
Max Wind Speed 9 mph    
Max Gust Speed -    
Visibility 6.9 miles    
Events Rain    
Averages and records for this station are not official NWS values.
T = Trace of Precipitation, MM = Missing Value Source: Averaged Metar Reports

Daily Weather History Graph

Daily Weather History Graph

Search for Another Location

Airport or City:

Trip Planner

Search our weather history database for the weather conditions in past years. The results will help you decide how hot, cold, wet, or windy it might be!

Date:

Astronomy

Oct. 08, 2012 Rise Set
Actual Time 7:54 AM CEST 7:03 PM CEST
Civil Twilight 7:21 AM CEST 7:36 PM CEST
Nautical Twilight 6:42 AM CEST 8:14 PM CEST
Astronomical Twilight 6:04 AM CEST 8:53 PM CEST
Moon No Moon Rise 3:23 PM CEST (10/8)
Length of Visible Light 12h 15m
Length of Day
11h 09m
Waning Gibbous, 49% of the Moon is Illuminated
Oct 8
Waning Gibbous
Oct 15
New
Oct 22
First Quarter
Oct 29
Full
Nov 7
Last Quarter

Hourly Weather History & Observations

Time (CEST) Temp. Windchill Dew Point Humidity Pressure Visibility Wind Dir Wind Speed Gust Speed Precip Events Conditions
12:20 AM 42.8 °F 41.1 °F 39.2 °F 87% 30.24 in - South 3.5 mph - N/A   Clear
12:50 AM 41.0 °F 39.0 °F 39.2 °F 93% 30.24 in - SSE 3.5 mph - N/A   Clear
1:20 AM - - - N/A% 30.21 in - ESE 3.5 mph - N/A   Clear
1:50 AM 42.8 °F 41.1 °F 39.2 °F 87% 30.21 in - ESE 3.5 mph - N/A   Clear
2:00 AM 42 °F - - %  in 16 mi ESE 2.2 mph - -   Clear
2:20 AM 41.0 °F 39.0 °F 39.2 °F 93% 30.21 in - SE 3.5 mph - N/A   Clear
2:50 AM 39.2 °F - 39.2 °F 100% 30.21 in - SSE 2.3 mph - N/A   Clear
3:20 AM 42.8 °F 41.1 °F 39.2 °F 87% 30.21 in - SE 3.5 mph - N/A   Clear
3:50 AM 41.0 °F 38.0 °F 39.2 °F 93% 30.18 in - SE 4.6 mph - N/A   Clear
4:20 AM 41.0 °F 39.0 °F 37.4 °F 87% 30.18 in - SE 3.5 mph - N/A   Clear
4:50 AM 39.2 °F 37.0 °F 37.4 °F 93% 30.18 in - SE 3.5 mph - N/A   Clear
5:00 AM 39 °F - 36 °F 87% 30.19 in 16 mi SE 4.5 mph - -   Clear
5:20 AM 39.2 °F 35.9 °F 37.4 °F 93% 30.15 in - SSE 4.6 mph - N/A   Clear
5:50 AM 41.0 °F 39.0 °F 37.4 °F 87% 30.15 in - SE 3.5 mph - N/A   Clear
6:20 AM 39.2 °F 37.0 °F 37.4 °F 93% 30.15 in - SE 3.5 mph - N/A   Clear
6:50 AM 39.2 °F 37.0 °F 37.4 °F 93% 30.15 in - South 3.5 mph - N/A   Clear
7:20 AM 39.2 °F 35.9 °F 37.4 °F 93% 30.15 in - SSE 4.6 mph - N/A   Clear
7:50 AM 39.2 °F 35.9 °F 37.4 °F 93% 30.12 in - SE 4.6 mph - N/A   Clear
8:00 AM 40 °F - 38 °F 89% 30.16 in 9 mi SE 4.5 mph - -   Scattered Clouds
8:20 AM 41.0 °F 37.1 °F 37.4 °F 87% 30.12 in - SSE 5.8 mph - N/A   Clear
8:50 AM 42.8 °F 39.3 °F 39.2 °F 87% 30.12 in - SSE 5.8 mph - N/A   Clear
9:20 AM 44.6 °F 41.4 °F 41.0 °F 87% 30.12 in - SSE 5.8 mph - N/A   Clear
9:50 AM 46.4 °F 44.3 °F 41.0 °F 81% 30.09 in - SSE 4.6 mph - N/A   Clear
10:20 AM 46.4 °F 43.5 °F 41.0 °F 81% 30.09 in - SE 5.8 mph - N/A   Clear
10:50 AM 46.4 °F 42.9 °F 42.8 °F 87% 30.09 in - SE 6.9 mph - N/A   Clear
11:00 AM 47 °F - 42 °F 77% 30.11 in 19 mi SE 6.7 mph - -   Mostly Cloudy
11:20 AM 48.2 °F - 42.8 °F 82% 30.09 in - SSE 6.9 mph - N/A   Clear
11:50 AM 50.0 °F - 42.8 °F 76% 30.09 in - SSE 8.1 mph - N/A   Clear
12:20 PM 50.0 °F - 44.6 °F 82% 30.09 in - SE 5.8 mph - N/A   Clear
12:50 PM 51.8 °F - 44.6 °F 76% 30.06 in - SE 6.9 mph - N/A   Clear
1:20 PM 51.8 °F - 44.6 °F 76% 30.04 in - ESE 5.8 mph - N/A   Clear
1:50 PM 53.6 °F - 44.6 °F 72% 30.04 in - SE 6.9 mph - N/A   Clear
2:00 PM 53 °F - 44 °F 62% 30.06 in 19 mi SE 6.7 mph - -   Mostly Cloudy
2:20 PM 53.6 °F - 44.6 °F 72% 30.04 in - SE 8.1 mph - N/A   Clear
2:50 PM 55.4 °F - 44.6 °F 67% 30.01 in - SE 9.2 mph - N/A   Clear
3:20 PM 55.4 °F - 44.6 °F 67% 30.01 in - SE 8.1 mph - N/A   Clear
3:50 PM 55.4 °F - 44.6 °F 67% 30.01 in - SE 5.8 mph - N/A   Clear
4:20 PM 53.6 °F - 44.6 °F 72% 29.98 in - SE 5.8 mph - N/A   Clear
4:50 PM 53.6 °F - 46.4 °F 77% 29.98 in 6.2 mi ESE 5.8 mph - N/A   Partly Cloudy
5:00 PM 54 °F - 46 °F 67% 29.98 in 16 mi ESE 4.5 mph - -   Mostly Cloudy
5:20 PM 53.6 °F - 44.6 °F 72% 29.92 in 6.2 mi SE 6.9 mph - N/A   Partly Cloudy
5:50 PM 53.6 °F - 46.4 °F 77% 29.92 in 6.2 mi East 4.6 mph - N/A Rain Light Rain
6:20 PM 53.6 °F - 46.4 °F 77% 29.92 in 6.2 mi ESE 3.5 mph - N/A Rain Light Rain
6:50 PM 51.8 °F - 48.2 °F 88% 29.89 in 2.8 mi SE 5.8 mph - N/A Rain Rain
7:20 PM 51.8 °F - 48.2 °F 88% 29.92 in 2.8 mi East 3.5 mph - N/A Rain Rain
7:50 PM 50.0 °F - 50.0 °F 100% 29.89 in 3.1 mi ESE 3.5 mph - N/A Rain Rain
8:00 PM 50 °F - 49 °F 96% 29.91 in 3 mi ESE 2.2 mph - - Rain Rain
8:20 PM 51.8 °F - 50.0 °F 94% 29.89 in 4.3 mi Variable 1.2 mph - N/A Rain Light Rain
8:50 PM 50.0 °F - 50.0 °F 100% 29.89 in - NE 3.5 mph - N/A Rain Rain
9:20 PM 50.0 °F - 50.0 °F 100% 29.89 in - ENE 2.3 mph - N/A   Light Drizzle
9:50 PM 50.0 °F - 50.0 °F 100% 29.89 in 1.6 mi ESE 2.3 mph - N/A   Light Drizzle
10:20 PM 50.0 °F - 50.0 °F 100% 29.86 in 1.9 mi ENE 2.3 mph - N/A   Light Drizzle
10:50 PM 50.0 °F - 50.0 °F 100% 29.86 in 1.9 mi NE 5.8 mph - N/A Rain Rain
11:00 PM 50 °F - 50 °F 99% 29.88 in 2 mi NE 4.5 mph - - Rain Heavy Rain
11:20 PM 50.0 °F - 50.0 °F 100% 29.86 in 1.1 mi NE 2.3 mph - N/A   Drizzle
11:50 PM 50.0 °F - 50.0 °F 100% 29.86 in 1.1 mi NE 3.5 mph - N/A   Drizzle